Location: Kapuskasing
(49.3803°N, 82.4001°W)
Time: 09:48:36
(UTC-04:00)

Envisat - Pass Details

Date: 16 March 2026
Orbit: 761 x 762 km, 98.4° (Epoch: 11 April)

Event Time Altitude Azimuth Distance (km) Brightness Sun altitude
Rises 06:24:40 0° 359° (N) 3,237 6.4 -13.1°
Reaches altitude 10° 06:28:54 10° 325° (NW) 2,305 5.3 -12.5°
Maximum altitude 06:30:10 11° 310° (NW) 2,238 5.1 -12.3°
Drops below altitude 10° 06:31:27 10° 295° (WNW) 2,301 5.0 -12.1°
Enters shadow 06:31:28 10° 295° (WNW) 2,302 5.0 -12.1°
